Weather History for Mercury, NV

Change the Weather History Date:

Thursday, February 21, 2013

  Actual Average Record
Temperature  
Mean Temperature 40 °F -  
Max Temperature 53 °F 55 °F 68 °F (2002)
Min Temperature 27 °F 36 °F 27 °F (2013)
Degree Days  
Heating Degree Days 25    
Moisture  
Dew Point 7 °F    
Average Humidity 25    
Maximum Humidity 45    
Minimum Humidity 4    
Precipitation  
Precipitation 0.00 in - - ()
Sea Level Pressure  
Sea Level Pressure 29.94 in    
Wind  
Wind Speed 8 mph (NNE)    
Max Wind Speed 18 mph    
Max Gust Speed 25 mph    
Visibility 10 miles    
Events      
Averages and records for this station are not official NWS values.
T = Trace of Precipitation, MM = Missing Value Source: NWS Daily Summary

Daily Weather History Graph

Daily Weather History Graph

Search for Another Location

Airport:

Trip Planner

Search our weather history database for the weather conditions in past years. The results will help you decide how hot, cold, wet, or windy it might be!

Date:

Astronomy

Feb. 21, 2013 Rise Set
Actual Time 6:24 AM PST 5:31 PM PST
Civil Twilight 5:58 AM PST 5:57 PM PST
Nautical Twilight 5:28 AM PST 6:27 PM PST
Astronomical Twilight 4:58 AM PST 6:57 PM PST
Moon 1:54 PM PST (2/21) 3:28 AM PST (2/21)
Length of Visible Light 11h 58m
Length of Day
11h 06m
Waxing Gibbous, 84% of the Moon is Illuminated
Feb 21
Waxing Gibbous
Feb 25
Full
Mar 4
Last Quarter
Mar 11
New
Mar 19
First Quarter

Hourly Weather History & Observations

Time (PST) Temp. Windchill Dew Point Humidity Pressure Visibility Wind Dir Wind Speed Gust Speed Precip Events Conditions
12:52 AM 37.0 °F 31.0 °F 9.0 °F 31% 29.85 in 10.0 mi NNE 8.1 mph - N/A   Clear
1:52 AM 36.0 °F 32.1 °F 10.0 °F 34% 29.85 in 10.0 mi NNE 4.6 mph - N/A   Clear
2:52 AM 30.9 °F 23.5 °F 10.0 °F 42% 29.85 in 10.0 mi North 8.1 mph - N/A   Clear
3:52 AM 28.9 °F - 10.0 °F 45% 29.86 in 10.0 mi Calm Calm - N/A   Clear
4:52 AM 28.9 °F - 10.0 °F 45% 29.87 in 10.0 mi Calm Calm - N/A   Clear
6:52 AM 35.1 °F 31.0 °F 12.0 °F 39% 29.90 in 10.0 mi NE 4.6 mph - N/A   Clear
7:52 AM 37.0 °F 29.3 °F 12.9 °F 37% 29.94 in 10.0 mi NE 11.5 mph - N/A   Clear
8:52 AM 39.0 °F 30.3 °F 14.0 °F 36% 29.96 in 10.0 mi NNE 16.1 mph - N/A   Clear
9:52 AM 42.1 °F 40.2 °F 12.0 °F 29% 29.96 in 10.0 mi Variable 3.5 mph - N/A   Clear
10:52 AM 46.0 °F 42.5 °F 10.9 °F 24% 29.95 in 10.0 mi ENE 6.9 mph - N/A   Clear
11:52 AM 48.0 °F - 7.0 °F 19% 29.94 in 10.0 mi NE 12.7 mph 20.7 mph N/A   Clear
12:52 PM 50.0 °F - 3.0 °F 15% 29.91 in 10.0 mi North 8.1 mph 25.3 mph N/A   Clear
1:52 PM 53.1 °F - 1.9 °F 12% 29.90 in 10.0 mi NNE 18.4 mph 21.9 mph N/A   Clear
2:52 PM 52.0 °F - -0.0 °F 12% 29.91 in 10.0 mi NNE 18.4 mph 24.2 mph N/A   Clear
3:52 PM 51.1 °F - -6.0 °F 9% 29.93 in 10.0 mi North 16.1 mph 25.3 mph N/A   Clear
4:52 PM 48.9 °F - -0.9 °F 13% 29.94 in 10.0 mi North 12.7 mph - N/A   Clear
5:52 PM 46.0 °F 41.4 °F 3.9 °F 18% 29.97 in 10.0 mi NNE 9.2 mph - N/A   Clear
6:52 PM 44.1 °F 39.0 °F 6.1 °F 21% 29.99 in 10.0 mi NNE 9.2 mph - N/A   Clear
7:52 PM 39.0 °F 32.8 °F 6.1 °F 26% 30.01 in 10.0 mi NE 9.2 mph - N/A   Clear
8:52 PM 39.0 °F 32.8 °F 5.0 °F 24% 30.02 in 10.0 mi NE 9.2 mph - N/A   Clear
9:52 PM 39.0 °F 31.4 °F 6.1 °F 26% 30.03 in 10.0 mi NNE 12.7 mph - N/A   Clear
10:52 PM 39.0 °F 32.3 °F 8.1 °F 28% 30.03 in 10.0 mi NE 10.4 mph - N/A   Clear
11:52 PM 37.9 °F 30.0 °F 9.0 °F 30% 30.04 in 10.0 mi NE 12.7 mph - N/A   Clear